Regional Weather Roundup
Issued by NWS

Home | Current Version | Previous Version | Text Only | Print | Product List | Glossary Off
Versions: 1 2 3 4 5 6 7 8 9 10 11 12 13 14 15 16 17 18 19 20 21 22 23 24 25 26 27

000
ASUS45 KCYS 230910
RWRWY

WYOMING REGIONAL WEATHER ROUNDUP
NATIONAL WEATHER SERVICE CHEYENNE WY
300 AM MDT WED AUG 23 2017

NOTE:  "FAIR" INDICATES FEW OR NO CLOUDS BELOW 12,000 FEET
WITH NO SIGNIFICANT WEATHER AND/OR OBSTRUCTIONS TO VISIBILITY.

WYZ001-231000-
YELLOWSTONE NATIONAL PARK

CITY           SKY/WX    TMP DP  RH WIND       PRES   REMARKS
LK YELLOWSTONE   N/A     39  33  79 CALM      30.39F
W YELLOWSTONE  NOT AVBL

$$
WYZ002>013-054>058-071-098>099-231000-
NORTHERN WYOMING

CITY           SKY/WX    TMP DP  RH WIND       PRES   REMARKS
JACKSON        FAIR      44  30  57 NE6       30.31S
CODY           FAIR      63  36  36 CALM      30.16F
GREYBULL       FAIR      59  40  49 E5        30.08S
WORLAND        FAIR      57  32  38 S5        30.10R
SHERIDAN       FAIR      53  42  66 CALM      30.08S
BUFFALO        FAIR      67  32  27 SW9       30.15F
GILLETTE       FAIR      56  39  53 N7        30.11R
HULETT         FAIR      63  43  48 CALM      30.13S
NEWCASTLE      FAIR      63  45  51 E7        30.14S

$$
WYZ014>020-022>026-101>103-231000-
CENTRAL WYOMING

CITY           SKY/WX    TMP DP  RH WIND       PRES   REMARKS
BIG PINEY      FAIR      46  30  53 NE5       30.33S
PINEDALE       FAIR      43  34  70 W3        30.34S
DUBOIS         FAIR      50  27  40 NW12      30.33S
LANDER           N/A    N/A N/A N/A MISG      30.19S
RIVERTON       FAIR      64  32  30 NE8       30.19S
CASPER         FAIR      53  38  56 W6        30.19S
DOUGLAS        FAIR      56  50  80 E6        30.18S

$$
WYZ021-027>030-104>119-231000-
SOUTHERN WYOMING

CITY           SKY/WX    TMP DP  RH WIND       PRES   REMARKS
EVANSTON       FAIR      58  43  57 S8        30.35S
KEMMERER         N/A     55  37  50 NW9       30.35F
FORT BRIDGER   PTSUNNY   65  40  39 W13       30.36S
ROCK SPRINGS   FAIR      62  37  39 S6        30.30S
DIXON          FAIR      51  36  56 E7        30.36F
RAWLINS        NOT AVBL
SARATOGA       FAIR      59  34  38 SE12      30.35S
LARAMIE        FAIR      51  40  65 S9        30.33S
CHEYENNE       FAIR      56  45  66 W13       30.23F
TORRINGTON     FAIR      57  53  86 E8        30.13F
PINE BLUFFS    FAIR      50  48  93 CALM      30.21S

$$




USA.gov is the U.S. government's official web portal to all federal, state and local government web resources and services.